Regional Weather Roundup
Issued by NWS

Home | Current Version | Previous Version | Text Only | Print | Product List | Glossary On
Versions: 1 2 3 4 5 6 7 8 9 10 11 12 13 14 15 16 17 18 19 20 21 22 23 24 25 26 27 28 29 30 31 32 33 34 35 36 37 38 39 40 41 42 43 44 45 46 47 48 49 50
000
ASUS43 KMKX 171520
RWRWI

WISCONSIN REGIONAL WEATHER ROUNDUP
NATIONAL WEATHER SERVICE MILWAUKEE/SULLIVAN WI
900 AM CST SAT FEB 17 2018

NOTE: "FAIR" INDICATES FEW OR NO CLOUDS BELOW 12,000 FEET WITH NO
SIGNIFICANT WEATHER AND/OR OBSTRUCTIONS TO VISIBILITY.

WIZ001-002-006>008-014>016-023>028-171600-
NORTHWEST WISCONSIN

CITY           SKY/WX    TMP DP  RH WIND       PRES   REMARKS
SUPERIOR ARPT  FAIR      21  13  71 SW15      29.82F WCI   8
ASHLAND        FAIR      20  12  71 SW12      29.82S WCI   8
HAYWARD        FAIR      20  11  68 SW8       29.83S WCI  10
SIREN          CLOUDY    24  15  70 SW13      29.85S WCI  12
CUMBERLAND     LGT SNOW  21  16  79 SW9       29.85S WCI  11
RICE LAKE      LGT SNOW  21  17  83 SW6       29.88S WCI  13
CHETEK         LGT SNOW  21  15  76 S5        29.87F WCI  15
LADYSMITH      CLOUDY    18  10  70 S6        29.88S HAZE    WCI  10
EAU CLAIRE     LGT SNOW  21  19  92 SW6       29.90S VSB 3/4 WCI  13
MENOMONIE      LGT SNOW  23  19  86 S5        29.90S WCI  17
NEW RICHMOND   LGT SNOW  24  18  79 SW9       29.87F WCI  14
OSCEOLA        FLURRIES  24  18  77 SW8       29.91S WCI  15
$$

WIZ003>005-009-010-017-018-171600-
NORTH CENTRAL WISCONSIN

CITY           SKY/WX    TMP DP  RH WIND       PRES   REMARKS
MANITOWISH WTR PTSUNNY   16   9  72 SW10      29.79F WCI   4
ARBOR VITAE    CLOUDY    17   9  71 SW8       29.81S WCI   6
WOODRUFF       CLOUDY    17   9  71 SW8       29.81S WCI   6
RHINELANDER    CLOUDY    16   6  65 SW10      29.83F WCI   4
EAGLE RIVER    PTSUNNY   16   6  65 SW12      29.80F WCI   3
LAND O LAKES   FAIR      16   8  70 SW7       29.81S WCI   7
PHILLIPS       CLOUDY    17   9  71 SW9G16    29.82F WCI   6
TOMAHAWK       CLOUDY    17   6  63 S3        29.86S
MEDFORD        LGT SNOW  16  11  81 SW10G18   29.87R WCI   4
MERRILL        CLOUDY    17   7  62 SW7       29.88F WCI   8
$$

WIZ029-030-035-036-043>047-171600-
CENTRAL WISCONSIN

CITY           SKY/WX    TMP DP  RH WIND       PRES   REMARKS
WAUSAU         LGT SNOW  18  10  71 SW3       29.89S
MOSINEE        CLOUDY    19  10  68 SW17      29.90F WCI   4
MARSHFIELD     LGT SNOW  20  14  77 SW10      29.88F WCI   9
STEVENS POINT  CLOUDY    20   6  55 SW10G17   29.93F WCI   8
WAUPACA        FAIR      24   8  50 SW12      29.96S WCI  13
WAUTOMA        CLOUDY    21   9  59 SW6       29.97F WCI  13
WISC RAPIDS    FLURRIES  22   8  55 SW10      29.94F WCI  11
CAMP DOUGLAS   CLOUDY    23   7  50 SW12      29.95S WCI  12
$$

WIZ011>013-019>022-031-037>040-048>050-171600-
NORTHEAST WISCONSIN

CITY           SKY/WX    TMP DP  RH WIND       PRES   REMARKS
ANTIGO         PTSUNNY   17   7  65 SW13G20   29.86F WCI   3
SHAWANO        FAIR      23   9  53 SW7       29.93F WCI  15
OCONTO         CLOUDY    22   7  54 SW8       29.94F WCI  12
STURGEON BAY   FAIR      24   8  50 SW13      29.95F WCI  12
GREEN BAY      FAIR      21   7  54 S12       29.96F WCI   9
MANITOWOC      FAIR      24   5  44 SW7       30.01F WCI  16
APPLETON       CLOUDY    19   7  58 SW14      29.95F WCI   6
CLINTONVILLE   CLOUDY    22   8  55 SW12      29.94F WCI  11
OSHKOSH        CLOUDY    21   8  57 SW15G24   29.98F WCI   8
$$

WIZ032>034-041-042-053>061-171600-
SOUTHWEST WISCONSIN

CITY           SKY/WX    TMP DP  RH WIND       PRES   REMARKS
LA CROSSE      CLOUDY    24  11  57 SE7       29.96F WCI  16
SPARTA         FAIR      24  10  55 SW3       29.97F
VIROQUA        FAIR      22  12  64 SW12      29.94F WCI  11
BOSCOBEL       CLOUDY    25  11  55 SW10      30.00F WCI  15
PRAIRIE DU CHI CLOUDY    24  10  53 SE3       30.00S
PLATTEVILLE    FAIR      20  13  73 SE7       30.01F WCI  11
$$

WIZ056-057-062-063-064-067-068-171600-
SOUTH CENTRAL WISCONSIN

CITY           SKY/WX    TMP DP  RH WIND       PRES   REMARKS
REEDSBURG      CLOUDY    24   9  54 W6        29.97S WCI  16
BARABOO/DELLS  FAIR      22   8  54 S13       29.97F WCI  10
LONE ROCK      CLOUDY    24  11  57 SW8       30.02F WCI  15
MINERAL POINT  FAIR      23  12  63 S9        29.99F WCI  13
MADISON        CLOUDY    19   9  65 S10       30.02F WCI   7
MIDDLETON      PTSUNNY   23  11  60 S10       30.02S WCI  12
WATERTOWN      FAIR      20   8  60 S8        30.02F WCI  11
MONROE         FAIR      21  12  68 S12       30.01S WCI   9
JANESVILLE     CLOUDY    21   9  58 SW8       30.03F WCI  12
$$

WIZ051-052-058>065-066-070>072-171600-
SOUTHEAST WISCONSIN

CITY           SKY/WX    TMP DP  RH WIND       PRES   REMARKS
MILWAUKEE      CLOUDY    23   6  48 SW9       30.05F WCI  13
WAUKESHA       MOSUNNY   18   5  57 S10       30.05F WCI   6
MILWAUKEE/TIMM PTSUNNY   21   0  39 SW9       30.05F WCI  11
RACINE         FAIR      22   5  48 S14       30.06F WCI   9
BURLINGTON     FAIR      20   6  53 SW9       30.05F WCI   9
KENOSHA        FAIR      22   6  50 SW12      30.05F WCI  10
FOND DU LAC    FAIR      21   5  50 SW17G25   30.00S WCI   7
SHEBOYGAN      FAIR      22   8  55 S10       30.01F WCI  11
WEST BEND      FAIR      25   5  42 SW10G16   30.02F WCI  15
JUNEAU         FAIR      19   9  65 S10G16    30.03F WCI   7
$$

LSZ147-162-171600-
LAKE SUPERIOR

STATION/POSITION TIME  TEMP    WIND        PRES    WAVE
                       AIR SEA DIR/SP/G            HT/PER
                 (UTC) (F)     (DEG/KT/KT) (MB)    (FT/S)
DEVILS ISLAND    1500   20     220/ 15/ 20 1009.9R
SAXON HARBOR     1440   21     200/  9/ 13 1009.5S
$$

LMZ867-665-643>646-171600-
LAKE MICHIGAN

STATION/POSITION TIME  TEMP    WIND        PRES    WAVE
                       AIR SEA DIR/SP/G            HT/PER
                 (UTC) (F)     (DEG/KT/KT) (MB)    (FT/S)
NORTHPORT PIER   1506   25                 1013.2
KEWAUNEE LAKESHO 1454   23     200/  8/ 12 1014.5F
SHEBOYGAN LAKESH 1500   22     210/ 17/ 20 1017.4F
PORT WASHINGTON  1440   23     230/  5/  8 1018.6F
MILWAUKEE LAKESH 1500   23     220/ 12/ 14   N/A
KENOSHA   LAKESH 1500   22     200/  4/  9 1017.9
$$

TC  - TEMPERATURE IN CELSIUS
VSB - VISIBILITY IN STATUTE MILES
WCI - WIND CHILL INDEX
HX  - HEAT INDEX





USA.gov is the U.S. government's official web portal to all federal, state and local government web resources and services.